Date,TemperatureHighF,TemperatureAvgF,TemperatureLowF,DewpointHighF,DewpointAvgF,DewpointLowF,HumidityHigh,HumidityAvg,HumidityLow,PressureMaxIn,PressureMinIn,WindSpeedMaxMPH,WindSpeedAvgMPH,GustSpeedMaxMPH,PrecipitationSumIn
2013-1-1,34,30,21,34,29,19,100,97,90,30.27,30.06,21,6,21,0.01
2013-1-2,30,22,14,20,17,12,94,80,58,30.33,30.24,9,3,9,0.00
2013-1-3,39,26,16,30,23,15,100,88,66,30.45,30.27,10,2,10,0.00
2013-1-4,41,31,20,34,28,19,100,88,67,30.52,30.40,14,3,14,0.00
2013-1-5,42,35,25,36,32,24,100,87,71,30.42,30.22,15,4,16,0.00
2013-1-6,39,34,25,37,31,23,100,88,71,30.43,30.16,22,7,22,0.00
2013-1-7,43,31,19,32,26,19,100,83,60,30.51,30.23,13,4,13,0.00
2013-1-8,55,42,29,38,33,25,92,72,46,30.31,30.19,16,5,16,0.00
2013-1-9,59,50,42,51,43,37,95,78,60,30.46,30.23,14,4,14,0.01
2013-1-10,66,55,46,64,53,39,100,94,69,30.45,29.87,39,9,39,1.21
2013-1-11,62,58,55,61,54,50,97,86,70,30.01,29.87,23,9,23,0.03
2013-1-12,71,63,45,68,62,45,100,98,88,29.98,29.68,29,7,29,1.90
2013-1-13,46,45,44,45,45,44,100,100,100,29.81,29.78,21,12,21,0.15
2013-1-16,34,31,29,29,28,26,94,87,74,30.19,30.11,10,4,10,0.01
2013-1-17,45,34,25,38,30,24,99,84,72,30.53,30.13,31,6,31,0.00
2013-1-18,46,35,22,33,28,21,99,75,54,30.59,30.30,21,6,21,0.00
2013-1-19,57,47,37,40,35,28,81,64,50,30.31,30.06,32,11,32,0.00
2013-1-20,44,37,26,38,25,15,96,64,33,30.34,30.14,18,5,18,0.00
2013-1-21,32,26,20,20,13,6,78,60,42,30.39,30.26,31,9,31,0.00
2013-1-22,23,19,15,6,2,-2,65,47,37,30.52,30.39,19,3,19,0.00
2013-1-23,44,30,17,31,19,3,88,65,47,30.41,30.17,17,5,17,0.00
2013-1-24,33,27,19,26,13,7,76,57,41,30.60,30.28,25,9,25,0.00
2013-1-25,41,32,26,29,23,8,92,72,41,30.28,30.13,19,4,19,0.00
2013-1-26,44,34,24,33,24,19,100,72,40,30.41,30.26,14,3,14,0.00
2013-1-27,53,38,29,49,36,19,100,91,64,30.36,30.10,19,7,21,0.18
2013-1-28,64,59,52,62,57,48,100,92,79,30.12,30.03,27,11,29,0.08
2013-1-29,72,65,54,65,61,52,99,87,75,30.04,29.42,50,16,50,0.72
2013-1-30,57,45,31,54,42,22,100,88,70,29.96,29.42,39,15,39,0.91
2013-1-31,39,31,18,33,23,9,98,73,61,30.36,29.96,29,14,34,0.01
2013-2-1,25,19,10,17,8,2,72,63,52,30.58,30.34,29,7,31,0.00
2013-2-2,41,33,25,33,25,16,84,71,60,30.34,30.10,21,7,21,0.00
2013-2-3,40,34,27,33,27,20,96,75,54,30.20,30.02,27,7,27,0.00
2013-2-4,48,38,28,42,33,23,99,83,52,30.12,29.89,23,8,26,0.01
2013-2-5,53,40,28,44,37,28,100,88,58,30.13,29.95,20,5,20,0.00
2013-2-6,52,42,30,39,33,29,99,72,44,30.29,30.12,18,4,19,0.00
2013-2-7,65,52,38,55,45,29,100,75,59,30.13,29.89,24,6,25,0.26
2013-2-8,48,39,32,47,34,28,97,85,71,30.40,29.97,30,11,30,0.00
2013-2-9,47,39,31,36,31,27,87,73,55,30.42,30.09,15,6,15,0.00
2013-2-10,58,52,46,57,47,34,98,82,61,30.09,29.73,40,12,42,0.43
2013-2-11,55,47,39,54,34,28,97,62,42,30.19,29.87,26,9,26,0.00
2013-2-12,50,41,28,41,32,28,100,74,48,30.20,29.89,14,3,14,0.00
2013-2-13,46,40,34,40,37,34,100,88,72,29.98,29.86,18,6,19,0.13
2013-2-14,58,46,36,44,39,33,100,79,58,30.07,29.93,20,7,20,0.01
2013-2-15,43,38,27,35,26,16,89,65,39,30.26,30.07,23,6,24,0.00
2013-2-16,36,28,22,22,15,8,89,59,35,30.27,30.20,21,6,21,0.00
2013-2-17,46,33,16,27,21,11,91,62,42,30.28,30.07,19,6,19,0.00
2013-2-18,59,48,38,50,40,24,97,74,47,30.07,29.68,48,15,48,0.42
2013-2-19,43,36,25,39,22,13,90,61,33,30.31,29.90,31,12,31,0.00
2013-2-20,31,26,21,19,16,13,82,66,54,30.42,30.29,15,5,15,0.00
2013-2-21,34,29,23,34,24,17,100,83,60,30.33,29.83,24,6,25,0.95
2013-2-22,46,37,31,40,35,27,100,91,75,30.11,29.83,24,9,24,0.06
2013-2-23,43,33,25,30,26,23,96,76,53,30.11,29.98,13,3,14,0.00
2013-2-24,51,37,22,31,27,21,98,69,42,30.18,30.03,14,4,14,0.00
2013-2-25,55,45,34,38,30,26,76,56,39,30.07,29.52,29,11,31,0.07
2013-2-26,49,44,38,49,41,35,100,92,78,29.70,29.35,30,12,30,0.57
2013-2-27,39,37,32,35,32,29,93,84,70,29.93,29.70,20,12,22,0.00
2013-2-28,38,34,32,34,31,27,100,88,78,30.13,29.92,15,9,19,0.01
2013-3-1,37,33,30,36,32,29,100,98,91,30.15,30.07,20,8,20,0.08
2013-3-2,32,30,29,30,26,18,99,84,61,30.24,30.13,24,10,24,0.01
2013-3-3,39,32,21,28,22,18,91,68,48,30.24,30.10,15,4,16,0.00
2013-3-4,57,46,36,41,30,24,74,55,42,30.13,29.80,24,7,25,0.01
2013-3-5,49,39,31,44,35,22,100,86,64,30.09,29.76,39,13,39,0.11
2013-3-6,42,35,31,30,27,24,84,73,60,30.37,30.09,31,12,31,0.00
2013-3-7,46,35,25,31,28,23,96,76,54,30.45,30.35,10,3,11,0.00
2013-3-8,56,42,27,33,29,25,95,65,37,30.49,30.25,18,5,18,0.00
2013-3-9,68,54,42,38,34,29,67,49,31,30.28,29.96,23,8,24,0.00
2013-3-10,67,58,50,56,48,37,100,73,48,29.97,29.73,39,13,40,0.31
2013-3-11,52,40,34,52,37,30,100,88,77,30.05,29.75,24,10,24,0.00
2013-3-12,51,40,30,32,28,22,88,64,37,30.23,30.03,24,8,24,0.00
2013-3-13,42,34,27,27,21,17,79,59,42,30.46,30.23,30,10,31,0.00
2013-3-14,44,34,21,35,27,19,95,78,48,30.46,30.14,18,4,18,0.03
2013-3-15,73,56,35,54,44,28,82,64,47,30.14,29.77,28,8,28,0.00
2013-3-16,68,56,41,55,46,37,87,70,55,30.02,29.76,29,11,29,0.00
2013-3-17,42,39,36,42,39,36,100,99,87,30.10,29.75,23,8,23,1.17
2013-3-18,50,44,38,47,42,36,100,93,75,30.04,29.67,31,8,32,0.44
2013-3-19,51,41,30,38,24,16,95,53,27,30.24,30.04,20,5,21,0.00
2013-3-20,41,34,26,33,24,14,89,67,47,30.27,30.12,27,8,31,0.00
2013-3-21,40,30,19,21,17,12,89,60,38,30.16,30.01,17,4,17,0.00
2013-3-22,41,37,32,28,23,20,65,58,48,30.08,30.00,13,5,13,0.00
2013-3-23,54,46,39,43,34,26,94,62,48,30.03,29.76,18,7,20,0.04
2013-3-24,45,38,31,43,37,30,100,98,87,29.80,29.47,34,12,34,0.16
2013-3-25,36,32,31,33,30,27,100,91,81,30.21,29.80,31,15,31,0.00
2013-3-26,42,35,29,31,28,24,97,76,54,30.40,30.20,20,6,20,0.01
2013-3-27,49,38,22,33,28,22,100,69,45,30.46,30.34,14,3,14,0.00
2013-3-28,58,48,38,39,34,29,76,58,43,30.42,30.28,12,4,12,0.00
2013-3-29,56,49,40,52,46,36,100,90,58,30.31,30.22,13,4,13,0.11
2013-3-30,56,47,38,50,46,38,100,95,77,30.24,29.93,12,4,13,0.35
2013-3-31,63,55,49,56,50,48,100,87,63,30.00,29.89,14,4,15,0.00
2013-4-1,53,46,36,49,34,26,97,65,40,30.25,29.95,22,5,22,0.00
2013-4-2,48,40,30,30,23,17,91,54,30,30.36,30.24,16,3,16,0.00
2013-4-3,52,44,32,28,24,20,67,46,32,30.40,30.22,23,7,23,0.00
2013-4-4,56,47,39,37,29,22,81,51,39,30.22,30.04,13,4,13,0.00
2013-4-5,70,53,32,43,36,32,100,59,29,30.18,30.07,23,3,23,0.00
2013-4-6,73,62,48,46,41,36,68,48,31,30.12,29.90,29,9,30,0.00
2013-4-7,72,65,59,60,53,43,80,65,50,30.02,29.92,22,9,23,0.00
2013-4-8,75,68,61,62,57,52,80,69,56,29.99,29.85,29,10,29,0.00
2013-4-9,80,72,63,68,63,56,84,74,61,30.05,29.90,26,10,26,0.00
2013-4-10,84,76,64,70,67,63,100,73,57,29.96,29.71,32,12,32,0.65
2013-4-11,68,56,42,67,54,36,100,96,78,29.82,29.63,23,8,24,0.67
2013-4-12,60,47,38,42,37,32,90,71,42,30.09,29.80,27,8,27,0.00
2013-4-13,64,51,34,45,39,30,91,65,44,30.15,29.97,13,3,14,0.00
2013-4-14,75,63,52,55,48,42,73,59,38,29.98,29.79,32,10,33,0.00
2013-4-15,80,69,59,65,59,52,87,71,54,29.98,29.85,23,9,23,0.00
2013-4-16,85,70,61,74,66,60,100,87,63,30.12,29.93,21,6,23,0.11
2013-4-17,83,72,59,76,67,59,100,86,67,30.13,29.85,27,6,27,0.73
2013-4-18,80,70,44,70,63,42,100,80,57,29.85,29.64,38,16,38,2.00
2013-4-19,50,44,39,42,34,30,91,70,53,30.14,29.78,27,11,30,0.00
2013-4-20,61,48,33,41,35,31,100,65,35,30.37,30.14,14,3,14,0.00
2013-4-21,65,53,40,40,34,26,73,50,24,30.46,30.29,18,6,18,0.00
2013-4-22,73,61,44,50,43,33,72,54,37,30.30,30.07,18,6,19,0.00
2013-4-23,74,64,45,64,55,45,99,73,57,30.10,29.88,37,11,37,0.13
2013-4-24,52,44,38,45,39,35,100,85,55,30.33,29.96,26,7,26,0.27
2013-4-25,65,51,35,45,40,34,100,69,41,30.41,30.30,14,4,15,0.00
2013-4-26,52,51,49,52,46,38,100,84,65,30.49,30.32,18,4,18,0.44
2013-4-27,60,55,50,60,55,50,100,100,99,30.33,29.93,26,4,26,0.46
2013-4-28,60,57,54,59,56,54,100,95,87,30.00,29.92,16,6,16,0.01
2013-4-29,74,63,49,62,57,49,100,82,60,30.05,29.91,16,6,16,0.00
2013-4-30,82,71,57,63,58,54,92,67,44,30.03,29.92,15,6,15,0.00
2013-5-1,82,72,62,67,61,55,87,69,51,30.14,30.02,15,4,15,0.00
2013-5-2,74,68,62,63,60,57,99,77,59,30.20,30.06,16,4,16,0.10
2013-5-3,73,59,42,63,56,42,100,92,66,30.06,29.81,30,8,30,0.85
2013-5-4,53,45,41,44,41,38,100,87,61,30.02,29.90,14,4,14,0.37
2013-5-5,58,51,41,56,50,41,100,98,91,29.99,29.88,14,4,14,0.22
2013-5-6,65,58,53,60,57,53,100,96,81,29.98,29.86,20,5,21,0.04
2013-5-7,74,63,51,64,59,51,100,87,61,30.06,29.96,13,3,13,0.01
2013-5-8,82,70,55,66,58,52,100,70,39,30.09,30.00,16,3,16,0.00
2013-5-9,81,73,62,67,62,59,95,71,49,30.08,29.93,31,8,32,0.00
2013-5-10,78,68,58,69,64,56,100,87,61,30.02,29.86,21,7,22,1.15
2013-5-11,73,60,51,60,51,38,98,74,49,30.18,29.99,24,6,27,0.01
2013-5-12,64,53,42,42,36,28,94,58,30,30.26,30.17,22,4,25,0.00
2013-5-13,71,57,38,52,41,34,100,61,31,30.30,30.13,16,4,16,0.00
2013-5-14,87,73,56,62,56,44,77,57,41,30.13,29.94,26,10,26,0.00
2013-5-15,85,76,68,65,59,55,71,57,43,30.08,29.95,24,10,26,0.00
2013-5-16,82,74,67,66,62,58,84,68,53,30.04,29.94,19,6,20,0.00
2013-5-17,74,69,64,69,65,61,100,88,77,30.04,29.96,18,5,19,0.04
2013-5-18,82,74,65,70,68,65,100,84,63,30.05,29.95,11,3,11,0.00
2013-5-19,90,80,71,78,72,68,100,78,54,29.98,29.86,22,8,23,0.00
2013-5-20,89,81,73,74,71,66,93,74,49,29.99,29.83,27,11,27,0.00
2013-5-21,80,71,66,73,68,64,100,89,64,29.95,29.79,36,10,37,0.79
2013-5-22,79,71,65,67,64,60,100,81,54,29.91,29.76,24,10,26,0.21
2013-5-23,73,65,54,65,57,49,98,78,58,30.22,29.91,27,8,29,0.00
2013-5-24,71,58,46,49,45,37,95,65,31,30.41,30.22,19,4,21,0.00
2013-5-25,76,63,45,57,50,45,100,67,39,30.39,30.18,13,3,14,0.00
2013-5-26,83,72,60,64,59,54,83,65,45,30.25,30.09,14,4,14,0.00
2013-5-27,86,77,67,70,63,58,76,63,47,30.11,29.93,27,9,27,0.00
2013-5-28,88,79,72,72,67,60,85,67,51,30.04,29.94,33,12,34,0.00
2013-5-29,89,79,68,70,65,59,76,62,46,30.09,29.95,24,10,25,0.00
2013-5-30,86,78,71,75,70,64,95,75,59,30.05,29.92,40,12,40,0.03
2013-5-31,82,76,71,76,72,69,98,88,73,30.01,29.85,31,11,31,0.19
2013-6-1,80,68,63,74,67,61,100,96,70,30.02,29.76,37,9,37,3.81
2013-6-2,76,70,64,69,64,60,100,82,63,30.02,29.93,19,6,19,0.00
2013-6-3,74,66,59,63,59,55,99,80,54,30.11,30.00,14,3,14,0.00
2013-6-4,79,69,54,64,59,54,99,74,53,30.12,30.00,14,4,14,0.00
2013-6-5,86,75,64,69,64,59,95,70,43,30.02,29.84,14,3,14,0.38
2013-6-6,82,75,67,70,66,62,99,76,53,29.86,29.79,17,5,17,0.02
2013-6-7,79,71,63,65,63,57,97,77,55,29.93,29.61,21,6,23,0.00
2013-6-8,81,72,58,68,60,54,100,71,40,30.03,29.91,14,3,14,0.00
2013-6-9,77,72,66,74,67,61,99,87,72,30.02,29.83,18,5,19,0.03
2013-6-10,83,74,66,72,68,64,100,83,57,29.97,29.85,20,6,21,0.05
2013-6-11,96,81,62,78,71,62,100,75,48,30.04,29.93,19,4,19,0.00
2013-6-12,96,87,78,78,75,71,88,68,48,30.06,29.84,28,10,29,0.00
2013-6-13,86,79,68,75,68,62,87,71,52,30.00,29.82,32,9,32,0.00
2013-6-14,84,73,60,64,62,57,100,70,46,30.12,29.99,19,3,19,0.00
2013-6-15,89,77,63,69,65,59,99,69,38,30.15,30.00,15,4,15,0.00
2013-6-16,88,79,71,74,71,67,100,79,55,30.06,29.96,13,4,13,0.00
2013-6-17,89,74,68,78,72,68,100,93,58,29.99,29.89,35,4,36,1.03
2013-6-18,87,76,65,72,69,65,100,82,55,30.01,29.87,35,4,35,0.39
2013-6-19,88,77,66,74,70,66,100,81,51,30.09,30.00,12,2,12,0.00
2013-6-20,90,80,68,76,71,67,100,76,48,30.17,30.08,17,3,18,0.00
2013-6-21,92,82,73,76,72,70,95,73,51,30.21,30.10,16,5,17,0.00
2013-6-22,91,81,70,74,71,67,92,74,47,30.19,30.04,26,6,28,0.00
2013-6-23,89,79,70,74,71,67,99,77,53,30.16,30.04,22,5,23,0.00
2013-6-24,92,79,71,78,73,68,98,83,53,30.17,30.04,19,5,19,0.00
2013-6-25,92,84,77,78,76,73,95,76,58,30.08,29.89,20,9,20,0.00
2013-6-26,92,83,73,79,75,71,100,79,58,29.97,29.76,27,10,29,1.31
2013-6-27,94,84,74,80,75,69,100,77,46,29.91,29.83,21,5,21,0.03
2013-6-28,91,81,70,76,69,62,99,70,41,29.90,29.71,26,6,26,0.00
2013-6-29,86,74,65,68,64,58,99,73,46,29.76,29.67,34,6,36,0.09
2013-6-30,78,69,62,72,67,62,100,92,70,29.88,29.73,19,4,19,0.31
2013-7-1,72,68,65,69,67,65,100,97,87,29.94,29.84,22,5,22,0.03
2013-7-2,73,67,64,70,66,63,100,94,84,30.06,29.89,19,7,21,0.00
2013-7-3,82,71,64,69,66,62,100,84,56,30.14,30.04,12,3,12,0.00
2013-7-4,83,73,63,74,69,63,100,87,63,30.12,30.03,13,4,16,0.00
2013-7-5,82,75,70,73,71,68,100,87,67,30.13,30.05,11,3,11,0.00
2013-7-6,85,75,66,75,71,66,100,90,63,30.14,30.03,22,4,24,1.03
2013-7-7,89,77,64,79,71,64,100,84,53,30.17,30.08,11,3,12,0.01
2013-7-8,91,82,72,79,75,72,100,81,55,30.18,30.07,10,4,12,0.00
2013-7-9,94,85,75,81,77,74,98,78,57,30.14,30.00,17,6,17,0.00
2013-7-10,89,83,77,80,76,70,98,81,56,30.04,29.92,16,4,17,0.00
2013-7-11,85,77,65,77,70,62,100,79,50,30.06,29.96,17,3,18,0.00
2013-7-12,84,73,62,68,63,57,97,73,47,30.13,30.04,19,4,21,0.00
2013-7-13,84,74,61,68,64,61,100,74,48,30.11,30.02,17,4,17,0.00
2013-7-14,87,76,66,76,72,65,100,89,64,30.17,30.06,15,4,18,0.02
2013-7-15,88,81,73,80,76,73,100,86,65,30.27,30.15,18,4,18,0.00
2013-7-16,92,82,72,78,75,72,100,80,55,30.35,30.26,11,2,11,0.00
2013-7-17,95,84,73,82,77,73,100,80,54,30.37,30.21,10,2,10,0.00
2013-7-18,93,84,74,81,78,74,100,83,60,30.23,30.07,13,3,13,0.00
2013-7-19,90,82,73,78,75,72,100,81,58,30.11,29.95,16,5,17,0.00
2013-7-20,91,81,71,80,75,69,100,84,56,30.02,29.84,26,6,28,0.87
2013-7-21,86,75,69,79,74,69,100,96,77,30.02,29.89,18,2,18,0.59
2013-7-22,87,79,72,80,76,72,100,91,70,29.92,29.83,13,5,14,0.24
2013-7-23,91,80,70,80,75,68,100,86,64,29.94,29.79,21,6,23,0.00
2013-7-24,82,74,65,71,67,61,100,82,58,30.04,29.86,16,3,16,0.00
2013-7-25,82,70,59,68,63,59,100,79,50,30.13,30.03,17,2,18,0.00
2013-7-26,82,71,56,73,66,56,100,87,56,30.12,29.99,13,2,13,0.00
2013-7-27,81,72,62,73,67,57,100,84,56,30.02,29.92,16,4,17,0.00
2013-7-28,78,68,52,64,59,52,100,75,47,30.10,30.01,10,2,11,0.00
2013-7-29,79,70,58,70,64,58,100,82,57,30.21,30.09,9,2,10,0.00
2013-7-30,74,70,66,74,69,63,100,97,86,30.19,30.05,15,4,15,0.68
2013-7-31,85,78,71,79,75,71,100,92,73,30.06,29.96,18,2,18,0.00
2013-8-1,86,76,66,74,70,65,100,83,52,30.10,30.01,14,2,14,0.00
2013-8-2,85,74,61,75,69,61,100,84,57,30.07,29.97,13,3,13,0.00
2013-8-3,85,77,73,80,75,70,100,94,77,30.11,29.95,11,3,11,0.71
2013-8-4,82,74,67,74,67,62,100,80,56,30.19,30.09,14,3,14,0.00
2013-8-5,76,70,65,71,68,64,100,93,74,30.12,29.95,14,3,14,0.23
2013-8-6,84,76,71,79,74,71,100,95,82,29.99,29.90,10,2,10,0.02
2013-8-7,84,75,74,76,75,72,100,100,76,29.95,29.88,23,5,23,3.20
2013-8-8,84,75,69,81,75,69,100,98,81,30.02,29.90,16,2,20,0.35
2013-8-9,85,78,72,81,76,63,100,96,82,30.08,29.93,52,0,52,1.29
2013-8-10,85,78,72,78,75,72,100,91,69,30.15,30.05,10,1,10,0.11
2013-8-11,89,80,71,78,74,71,100,85,62,30.16,30.09,10,1,10,0.00
2013-8-12,87,77,72,82,76,70,100,96,75,30.10,29.93,32,3,35,0.44
2013-8-13,83,76,66,76,71,65,100,88,65,30.09,29.95,17,4,17,0.00
2013-8-14,74,65,52,65,57,50,97,76,51,30.19,30.09,19,4,19,0.00
2013-8-15,71,60,49,56,52,48,99,77,51,30.16,30.06,15,3,15,0.00
2013-8-16,72,62,52,62,57,48,100,83,60,30.14,30.07,16,3,16,0.00
2013-8-17,74,63,58,67,61,39,100,94,75,30.20,30.08,21,3,21,1.30
2013-8-18,76,64,58,69,63,57,100,95,74,30.18,30.10,14,1,14,0.00
2013-8-19,81,68,55,70,63,55,100,87,61,30.16,30.05,10,1,10,0.00
2013-8-20,84,72,60,72,66,60,100,85,59,30.15,30.07,7,1,8,0.00
2013-8-21,84,73,61,73,68,61,100,85,58,30.19,30.08,9,1,9,0.00
2013-8-22,87,75,64,74,69,63,100,85,57,30.16,30.03,11,1,12,0.00
2013-8-23,84,74,65,74,70,65,100,88,65,30.13,30.04,14,2,14,0.00
2013-8-24,83,73,63,71,66,62,100,81,57,30.24,30.10,14,3,14,0.00
2013-8-25,83,72,61,74,68,60,98,86,64,30.32,30.21,12,3,12,0.00
2013-8-26,83,74,67,73,70,66,100,86,67,30.29,30.13,15,4,15,0.00
2013-8-27,83,74,66,74,70,65,99,87,69,30.16,29.89,13,4,14,0.00
2013-8-28,85,75,66,74,68,62,99,80,54,30.10,30.01,13,4,14,0.00
2013-8-29,88,76,66,75,70,64,100,81,55,30.07,29.98,10,2,11,0.00
2013-8-30,89,78,65,75,70,65,100,81,51,30.03,29.89,11,3,11,0.00
2013-8-31,88,80,68,76,72,66,97,80,59,29.93,29.80,21,5,29,0.76
2013-9-1,78,74,65,72,70,64,100,88,75,29.92,29.79,24,6,24,0.00
2013-9-2,81,72,64,74,67,60,100,86,58,29.96,29.86,16,3,16,0.00
2013-9-3,79,68,58,66,60,56,99,79,50,30.09,29.95,12,3,12,0.00
2013-9-4,77,65,54,63,58,54,100,81,51,30.19,30.08,11,2,11,0.00
2013-9-5,78,65,51,67,60,51,100,83,54,30.23,30.14,10,2,11,0.00
2013-9-6,81,69,57,68,63,57,100,81,51,30.21,30.08,14,2,14,0.00
2013-9-7,82,70,56,71,64,56,100,83,56,30.11,29.97,16,3,16,0.00
2013-9-8,83,72,62,71,68,61,100,87,68,30.02,29.93,10,2,10,0.00
2013-9-9,87,78,70,73,71,69,98,81,59,30.05,29.97,13,4,13,0.00
2013-9-10,85,75,69,76,70,64,97,86,61,30.18,30.03,17,3,17,0.39
2013-9-11,89,74,67,74,69,64,100,85,57,30.20,30.08,18,2,18,0.00
2013-9-12,82,71,62,73,66,60,100,85,63,30.09,29.96,24,2,24,0.04
2013-9-13,70,61,51,60,52,47,92,73,49,30.11,30.02,20,3,21,0.00
2013-9-14,68,55,44,51,47,41,100,76,45,30.18,29.81,17,3,17,0.00
2013-9-15,75,59,42,58,51,42,100,77,46,30.14,30.06,13,3,13,0.00
2013-9-16,70,62,58,63,58,52,99,87,72,30.23,30.11,13,2,13,0.00
2013-9-17,77,65,55,62,59,55,100,83,55,30.24,30.10,12,3,13,0.00
2013-9-18,80,69,60,70,65,59,99,88,66,30.15,30.03,13,4,13,0.00
2013-9-19,81,73,66,71,68,65,98,86,69,30.10,29.96,19,7,19,0.00
2013-9-20,71,68,62,69,66,62,100,90,79,29.99,29.85,18,5,19,0.67
2013-9-21,68,59,50,62,51,43,100,78,47,29.94,29.62,23,5,23,0.20
2013-9-22,70,57,44,54,48,43,100,77,45,30.02,29.67,16,3,16,0.00
2013-9-23,71,58,45,55,50,44,100,77,50,30.06,29.94,14,3,14,0.00
2013-9-24,74,60,50,66,58,48,100,93,74,29.98,29.83,14,4,14,0.43
2013-9-25,76,65,58,67,62,58,100,91,65,29.90,29.81,13,2,13,0.01
2013-9-26,78,65,55,68,60,55,100,85,56,30.04,29.89,11,2,12,0.00
2013-9-27,76,63,53,61,55,51,100,77,44,30.15,30.04,13,3,13,0.00
2013-9-28,76,65,53,61,56,52,99,75,47,30.15,30.04,20,6,20,0.00
2013-9-29,64,60,58,60,58,54,100,94,71,30.08,30.00,14,5,14,1.31
2013-9-30,59,59,59,59,59,59,100,100,100,30.01,29.98,6,1,6,0.00
2013-10-1,68,65,63,66,65,63,100,99,95,30.07,30.03,6,2,7,0.00
2013-10-2,76,67,62,70,65,62,100,95,76,30.11,30.04,16,4,21,0.05
2013-10-3,79,70,64,67,64,62,100,82,58,30.08,29.96,18,7,18,0.00
2013-10-4,81,71,64,70,67,63,100,88,65,30.08,29.98,16,6,17,0.00
2013-10-5,78,68,63,72,67,63,100,96,74,30.04,29.86,26,6,27,2.13
2013-10-6,63,55,45,63,48,40,100,79,49,30.00,29.85,26,6,26,0.92
2013-10-7,62,50,40,48,44,38,100,80,54,30.17,29.95,18,1,18,0.00
2013-10-8,65,53,40,50,43,40,100,74,42,30.23,30.12,18,1,18,0.00
2013-10-9,73,57,43,60,52,42,100,85,60,30.20,30.09,11,1,11,0.00
2013-10-10,74,61,50,64,57,50,100,88,59,30.19,30.03,10,0,11,0.00
2013-10-11,75,63,53,62,56,52,100,80,47,30.08,29.99,16,1,16,0.00
2013-10-12,69,62,55,63,59,54,100,92,78,30.17,30.01,11,1,11,0.01
2013-10-13,71,58,47,56,47,40,100,71,36,30.34,30.17,19,1,19,0.01
2013-10-14,67,55,44,56,49,40,93,81,67,30.31,30.10,10,0,10,0.00
2013-10-15,66,61,58,62,60,55,100,97,86,30.11,29.95,21,4,21,0.15
2013-10-16,62,52,43,62,48,43,100,87,63,30.06,29.95,21,0,21,0.01
2013-10-17,59,48,42,48,44,41,100,86,56,30.04,29.97,16,0,16,0.14
2013-10-18,64,51,39,50,44,39,100,79,44,30.09,29.96,13,0,13,0.00
2013-10-19,52,44,38,45,38,31,100,81,47,30.07,29.92,17,1,18,0.13
2013-10-20,60,46,35,41,38,34,100,75,45,30.10,29.99,19,2,19,0.00
2013-10-21,60,50,39,48,42,37,93,76,55,30.08,29.98,17,0,17,0.00
2013-10-22,55,44,29,43,34,29,100,73,43,30.10,29.86,35,1,35,0.01
2013-10-23,46,39,35,38,31,26,91,73,47,30.15,29.93,19,2,23,0.01
2013-10-24,44,37,27,37,29,21,100,76,41,30.43,30.14,19,1,20,0.00
2013-10-25,47,33,19,30,23,19,100,72,37,30.56,30.32,10,0,10,0.00
2013-10-26,54,41,28,41,32,23,94,71,55,30.32,30.06,20,2,22,0.00
2013-10-27,60,45,28,42,34,28,100,69,36,30.16,30.03,10,0,10,0.00
2013-10-28,65,51,37,48,43,36,98,76,52,30.27,30.07,11,0,13,0.00
2013-10-29,57,50,40,56,49,39,100,98,83,30.31,30.11,17,0,17,0.18
2013-10-30,72,64,56,63,60,56,100,88,68,30.15,29.96,24,2,24,0.03
2013-10-31,65,61,52,63,59,50,100,94,81,29.95,29.47,31,12,39,0.64
2013-11-1,61,51,44,50,45,40,100,82,48,29.88,29.69,19,3,19,0.00
2013-11-2,53,42,34,42,37,32,98,83,60,30.21,29.87,27,2,27,0.00
2013-11-3,52,40,25,44,31,25,100,75,40,30.35,30.20,13,0,13,0.00
2013-11-4,55,46,40,46,39,34,97,77,52,30.31,30.22,19,1,20,0.02
2013-11-5,58,53,47,48,43,39,87,68,57,30.35,30.15,21,1,23,0.00
2013-11-6,56,48,35,53,44,34,100,87,60,30.25,30.03,27,5,28,0.45
2013-11-7,47,38,28,36,29,24,100,75,43,30.41,30.24,11,0,11,0.00
2013-11-8,53,39,23,39,28,23,100,70,37,30.42,30.21,13,0,14,0.00
2013-11-9,58,46,37,42,36,29,89,68,50,30.26,30.14,27,5,29,0.00
2013-11-10,55,43,31,40,30,22,100,64,29,30.42,30.25,14,1,14,0.00
2013-11-11,57,43,27,42,31,24,94,66,39,30.36,30.15,27,1,27,0.00
2013-11-12,40,28,19,33,19,14,93,72,47,30.73,30.31,32,2,32,0.00
2013-11-13,38,26,12,22,16,11,99,69,40,30.75,30.43,12,0,12,0.00
2013-11-14,49,36,23,21,18,15,74,49,28,30.44,30.15,19,1,21,0.00
2013-11-15,46,42,36,44,33,18,100,72,46,30.19,30.04,11,0,11,0.03
2013-11-16,62,54,44,60,52,42,100,93,84,30.06,29.78,27,7,29,0.01
2013-11-17,69,61,51,65,53,25,100,79,33,29.98,29.54,39,8,39,2.01
2013-11-18,53,44,31,40,30,22,90,58,33,30.31,29.96,27,1,27,0.00
2013-11-19,44,34,26,27,24,21,92,71,42,30.39,30.23,13,0,13,0.00
2013-11-20,51,39,25,33,28,22,91,68,47,30.25,30.11,11,0,13,0.00
2013-11-21,54,48,44,51,44,31,100,84,61,30.25,30.16,18,1,19,0.21
2013-11-22,51,42,33,51,41,30,100,98,89,30.47,30.17,25,7,25,0.07
2013-11-23,35,28,16,30,19,7,94,72,40,30.69,30.44,32,7,32,0.00
2013-11-24,26,18,10,12,7,5,83,63,44,30.77,30.48,16,0,17,0.00
2013-11-25,31,26,21,27,17,10,99,69,51,30.52,30.19,14,0,14,0.00
2013-11-26,34,29,20,29,24,10,100,84,64,30.22,30.00,31,6,32,0.01
2013-11-27,24,17,12,10,5,2,72,59,43,30.40,30.15,32,6,34,0.00
2013-11-28,41,27,10,26,16,4,87,65,44,30.51,30.32,22,1,22,0.00
2013-11-29,48,35,20,32,27,20,100,74,50,30.62,30.44,8,0,8,0.00
2013-11-30,55,43,32,32,27,24,79,57,31,30.46,30.20,20,0,20,0.00
2013-12-1,56,46,36,43,35,28,96,68,51,30.20,29.93,2,0,2,0.00
2013-12-2,58,45,30,49,42,30,100,89,68,29.95,29.72,7,0,8,0.00
2013-12-3,61,52,45,56,50,45,100,91,69,29.79,29.70,3,0,5,0.00
2013-12-4,71,63,51,63,59,49,100,88,70,29.81,29.65,27,7,27,0.00
2013-12-5,66,37,26,63,35,26,100,93,83,30.27,29.80,23,6,23,0.19
2013-12-6,27,20,16,26,20,15,100,99,93,30.53,30.18,19,4,19,0.00
2013-12-7,21,15,8,15,10,5,93,83,72,30.69,30.42,18,3,19,0.04
2013-12-8,30,25,18,30,24,14,100,97,88,30.44,30.06,15,3,16,0.69
2013-12-9,31,26,21,27,22,15,100,86,69,30.32,30.12,15,1,15,0.00
2013-12-10,27,20,16,23,18,15,100,92,76,30.41,30.26,14,2,14,0.00
2013-12-11,34,23,14,30,20,10,100,88,66,30.66,30.38,15,2,21,0.01
2013-12-12,26,17,4,17,8,1,91,69,42,30.69,30.38,6,0,6,0.00
2013-12-13,38,30,20,32,22,15,89,73,52,30.41,30.00,19,1,19,0.03
2013-12-14,35,33,29,35,33,28,100,98,90,30.13,29.82,25,5,25,0.70
2013-12-15,30,28,26,29,26,23,98,93,87,30.27,30.12,19,7,20,0.00
2013-12-16,45,38,30,39,34,30,98,88,74,30.14,30.05,15,2,19,0.00
2013-12-17,43,34,26,39,30,23,100,84,58,30.31,30.09,14,1,14,0.00
2013-12-18,48,37,22,33,25,17,97,65,34,30.36,30.08,19,3,21,0.00
2013-12-19,59,52,44,52,44,31,80,73,65,30.10,29.90,28,13,28,0.00
2013-12-20,64,61,56,63,58,50,100,91,75,29.93,29.80,29,9,31,0.02
2013-12-21,64,48,36,63,48,36,100,100,97,29.83,29.45,31,1,32,9.55
2013-12-22,45,38,32,44,38,30,100,97,90,30.25,29.64,1,0,8,0.00
2013-12-23,32,28,24,31,23,18,95,84,72,30.56,30.25,0,0,0,0.00
2013-12-24,23,18,11,19,10,6,87,73,57,30.68,30.44,0,0,2,0.00
2013-12-25,38,29,19,29,22,14,95,75,59,30.45,30.29,0,0,0,0.00
2013-12-26,43,34,25,32,28,25,100,80,54,30.47,30.34,0,0,0,0.00
2013-12-27,50,38,27,37,32,24,95,77,55,30.47,30.35,0,0,0,0.00
2013-12-28,47,40,32,38,33,29,94,78,54,30.35,29.99,0,0,0,0.00
2013-12-29,46,35,23,42,33,19,100,92,74,30.25,29.93,0,0,0,0.11
2013-12-30,26,20,15,20,14,10,87,80,55,30.36,30.25,0,0,0,1.32